| time (UTC) | temp F | wind direction | speed knots | gust knots | rain 1hr in | rain 24hr in | rain mn in | humidity % | barometer mb |
| 20260503215056 | 88 | 244 | 2.6 | 6.1 | 0.00 | 0.00 | 0.00 | 72 | 1008.7 |
| 20260503214618 | 87 | 158 | 3.5 | 8.7 | 0.00 | 0.00 | 0.00 | 72 | 1008.8 |
| 20260503214129 | 88 | 239 | 4.3 | 8.7 | 0.00 | 0.00 | 0.00 | 72 | 1008.8 |
| 20260503213514 | 88 | 177 | 4.3 | 8.7 | 0.00 | 0.00 | 0.00 | 71 | 1008.8 |
| 20260503213106 | 88 | 186 | 3.5 | 7.8 | 0.00 | 0.00 | 0.00 | 71 | 1008.8 |
| 20260503212616 | 88 | 235 | 4.3 | 7.8 | 0.00 | 0.00 | 0.00 | 72 | 1008.9 |
| 20260503212005 | 88 | 204 | 4.3 | 8.7 | 0.00 | 0.00 | 0.00 | 72 | 1009.0 |
| 20260503211525 | 88 | 173 | 5.2 | 9.6 | 0.00 | 0.00 | 0.00 | 72 | 1009.1 |
| 20260503211050 | 88 | 235 | 3.5 | 8.7 | 0.00 | 0.00 | 0.00 | 72 | 1009.2 |
| 20260503210612 | 88 | 234 | 2.6 | 11.3 | 0.00 | 0.00 | 0.00 | 72 | 1009.3 |
| 20260503210009 | 88 | 249 | 4.3 | 9.6 | 0.00 | 0.00 | 0.00 | 72 | 1009.3 |
| 20260503205534 | 88 | 219 | 4.3 | 10.4 | 0.00 | 0.00 | 0.00 | 72 | 1009.3 |
| 20260503205053 | 88 | 202 | 3.5 | 8.7 | 0.00 | 0.00 | 0.00 | 71 | 1009.3 |
| 20260503204612 | 88 | 212 | 5.2 | 8.7 | 0.00 | 0.00 | 0.00 | 72 | 1009.4 |
| 20260503204016 | 88 | 215 | 1.7 | 10.4 | 0.00 | 0.00 | 0.00 | 72 | 1009.5 |
| 20260503203534 | 88 | 187 | 6.1 | 11.3 | 0.00 | 0.00 | 0.00 | 71 | 1009.6 |
| 20260503203053 | 88 | 167 | 6.1 | 10.4 | 0.00 | 0.00 | 0.00 | 71 | 1009.7 |
| 20260503202609 | 88 | 224 | 5.2 | 9.6 | 0.00 | 0.00 | 0.00 | 71 | 1009.8 |
| 20260503202019 | 88 | 242 | 4.3 | 7.8 | 0.00 | 0.00 | 0.00 | 71 | 1009.9 |
| 20260503201533 | 88 | 213 | 5.2 | 7.8 | 0.00 | 0.00 | 0.00 | 72 | 1009.9 |
| 20260503201058 | 87 | 221 | 3.5 | 9.6 | 0.00 | 0.00 | 0.00 | 72 | 1010.0 |
| 20260503200620 | 87 | 185 | 4.3 | 9.6 | 0.00 | 0.00 | 0.00 | 72 | 1010.1 |
| 20260503200043 | 87 | 223 | 4.3 | 9.6 | 0.00 | 0.00 | 0.00 | 72 | 1010.2 |
| 20260503195522 | 87 | 250 | 4.3 | 11.3 | 0.00 | 0.00 | 0.00 | 71 | 1010.1 |
| 20260503195048 | 87 | 220 | 4.3 | 11.3 | 0.00 | 0.00 | 0.00 | 71 | 1010.2 |
| 20260503194607 | 88 | 238 | 6.1 | 10.4 | 0.00 | 0.00 | 0.00 | 70 | 1010.2 |
| 20260503194007 | 88 | 267 | 3.5 | 10.4 | 0.00 | 0.00 | 0.00 | 70 | 1010.2 |
| 20260503193527 | 88 | 232 | 3.5 | 10.4 | 0.00 | 0.00 | 0.00 | 69 | 1010.2 |
| 20260503193107 | 88 | 156 | 3.5 | 10.4 | 0.00 | 0.00 | 0.00 | 69 | 1010.3 |
| 20260503192614 | 88 | 259 | 5.2 | 8.7 | 0.00 | 0.00 | 0.00 | 69 | 1010.3 |
| 20260503192005 | 89 | 250 | 4.3 | 8.7 | 0.00 | 0.00 | 0.00 | 68 | 1010.3 |
| 20260503191521 | 89 | 174 | 4.3 | 8.7 | 0.00 | 0.00 | 0.00 | 67 | 1010.3 |
| 20260503191054 | 89 | 275 | 5.2 | 10.4 | 0.00 | 0.00 | 0.00 | 67 | 1010.2 |
| 20260503190612 | 89 | 180 | 5.2 | 8.7 | 0.00 | 0.00 | 0.00 | 66 | 1010.3 |
| 20260503190014 | 90 | 175 | 3.5 | 9.6 | 0.00 | 0.00 | 0.00 | 66 | 1010.4 |
| 20260503185528 | 89 | 223 | 3.5 | 9.6 | 0.00 | 0.00 | 0.00 | 67 | 1010.5 |
| 20260503185100 | 90 | 202 | 3.5 | 7.8 | 0.00 | 0.00 | 0.00 | 66 | 1010.5 |
| 20260503184617 | 89 | 194 | 2.6 | 7.8 | 0.00 | 0.00 | 0.00 | 67 | 1010.5 |
| 20260503184016 | 89 | 200 | 2.6 | 7.8 | 0.00 | 0.00 | 0.00 | 67 | 1010.6 |
| 20260503183535 | 89 | 205 | 4.3 | 8.7 | 0.00 | 0.00 | 0.00 | 66 | 1010.5 |
| 20260503183112 | 89 | 205 | 3.5 | 7.8 | 0.00 | 0.00 | 0.00 | 67 | 1010.6 |
| 20260503182516 | 89 | 244 | 3.5 | 7.0 | 0.00 | 0.00 | 0.00 | 66 | 1010.8 |
| 20260503182059 | 88 | 196 | 3.5 | 7.0 | 0.00 | 0.00 | 0.00 | 67 | 1010.8 |
| 20260503181614 | 88 | 226 | 3.5 | 7.8 | 0.00 | 0.00 | 0.00 | 69 | 1010.9 |
| 20260503181007 | 88 | 229 | 3.5 | 7.8 | 0.00 | 0.00 | 0.00 | 67 | 1011.0 |
| 20260503180526 | 88 | 190 | 3.5 | 7.8 | 0.00 | 0.00 | 0.00 | 67 | 1011.0 |
| 20260503180053 | 88 | 177 | 3.5 | 7.8 | 0.00 | 0.00 | 0.00 | 67 | 1011.1 |
| 20260503175604 | 88 | 229 | 2.6 | 7.0 | 0.00 | 0.00 | 0.00 | 68 | 1011.1 |
| 20260503175008 | 87 | 244 | 3.5 | 7.0 | 0.00 | 0.00 | 0.00 | 68 | 1011.1 |
| 20260503174528 | 87 | 192 | 3.5 | 7.0 | 0.00 | 0.00 | 0.00 | 69 | 1011.1 |
| 20260503174050 | 86 | 287 | 2.6 | 7.0 | 0.00 | 0.00 | 0.00 | 68 | 1011.1 |
| 20260503173606 | 86 | 227 | 4.3 | 7.8 | 0.00 | 0.00 | 0.00 | 68 | 1011.2 |
| 20260503173021 | 87 | 208 | 3.5 | 7.8 | 0.00 | 0.00 | 0.00 | 68 | 1011.2 |
| 20260503172540 | 87 | 253 | 4.3 | 6.1 | 0.00 | 0.00 | 0.00 | 67 | 1011.2 |
| 20260503172104 | 87 | 263 | 2.6 | 6.1 | 0.00 | 0.00 | 0.00 | 68 | 1011.3 |
| 20260503171622 | 87 | 240 | 2.6 | 6.1 | 0.00 | 0.00 | 0.00 | 68 | 1011.3 |
| 20260503171010 | 87 | 222 | 3.5 | 6.1 | 0.00 | 0.00 | 0.00 | 68 | 1011.3 |
| 20260503170528 | 87 | 198 | 2.6 | 5.2 | 0.00 | 0.00 | 0.00 | 68 | 1011.3 |
| 20260503150625 | 83 | 321 | 0.9 | 4.3 | 0.00 | 0.00 | 0.00 | 65 | 1011.3 |
| 20260503131103 | 77 | 5 | 1.7 | 2.6 | 0.00 | 0.00 | 0.00 | 81 | 1010.2 |
| 20260503130623 | 77 | 98 | 0.0 | 0.9 | 0.00 | 0.00 | 0.00 | 81 | 1010.0 |
| 20260503110526 | 78 | 98 | 0.0 | 2.6 | 0.00 | 0.00 | 0.00 | 80 | 1008.6 |
| 20260503081536 | 81 | 121 | 0.0 | 1.7 | 0.00 | 0.00 | 0.00 | 77 | 1008.6 |
| 20260503081105 | 81 | 121 | 0.0 | 1.7 | 0.00 | 0.00 | 0.00 | 77 | 1008.6 |
| 20260503080622 | 81 | 121 | 0.0 | 1.7 | 0.00 | 0.00 | 0.00 | 77 | 1008.6 |
| 20260503072623 | 81 | 124 | 0.0 | 2.6 | 0.00 | 0.00 | 0.00 | 78 | 1009.0 |
| 20260503072016 | 81 | 124 | 0.9 | 2.6 | 0.00 | 0.00 | 0.00 | 78 | 1009.1 |
| 20260503071534 | 81 | 126 | 0.9 | 2.6 | 0.00 | 0.00 | 0.00 | 78 | 1009.0 |
| 20260503071113 | 81 | 116 | 0.0 | 2.6 | 0.00 | 0.00 | 0.00 | 78 | 1009.1 |
| 20260503070623 | 81 | 109 | 0.9 | 2.6 | 0.00 | 0.00 | 0.00 | 78 | 1009.1 |
| 20260503055055 | 82 | 186 | 0.9 | 4.3 | 0.00 | 0.00 | 0.00 | 80 | 1009.4 |
| 20260503054614 | 81 | 199 | 1.7 | 4.3 | 0.00 | 0.00 | 0.00 | 80 | 1009.5 |
| 20260503054022 | 81 | 177 | 2.6 | 4.3 | 0.00 | 0.00 | 0.00 | 81 | 1009.5 |
| 20260503053541 | 81 | 167 | 1.7 | 4.3 | 0.00 | 0.00 | 0.00 | 81 | 1009.5 |
| 20260503053127 | 81 | 178 | 1.7 | 3.5 | 0.00 | 0.00 | 0.00 | 81 | 1009.5 |
| 20260503052515 | 81 | 185 | 1.7 | 3.5 | 0.00 | 0.00 | 0.00 | 81 | 1009.5 |
| 20260503052105 | 81 | 155 | 1.7 | 4.3 | 0.00 | 0.00 | 0.00 | 81 | 1009.5 |
| 20260503051624 | 81 | 181 | 2.6 | 4.3 | 0.00 | 0.00 | 0.00 | 81 | 1009.4 |
| 20260503051134 | 81 | 220 | 1.7 | 4.3 | 0.00 | 0.00 | 0.00 | 82 | 1009.4 |
| 20260503050525 | 81 | 229 | 1.7 | 4.3 | 0.00 | 0.00 | 0.00 | 82 | 1009.4 |
| 20260503050045 | 82 | 225 | 1.7 | 4.3 | 0.00 | 0.00 | 0.00 | 82 | 1009.3 |
| 20260503045608 | 81 | 194 | 1.7 | 4.3 | 0.00 | 0.00 | 0.00 | 82 | 1009.3 |
| 20260503045131 | 81 | 178 | 1.7 | 3.5 | 0.00 | 0.00 | 0.00 | 82 | 1009.3 |
| 20260503044521 | 81 | 213 | 0.9 | 3.5 | 0.00 | 0.00 | 0.00 | 82 | 1009.3 |
| 20260503044111 | 81 | 213 | 0.9 | 3.5 | 0.00 | 0.00 | 0.00 | 82 | 1009.3 |
| 20260503043625 | 81 | 211 | 1.7 | 4.3 | 0.00 | 0.00 | 0.00 | 82 | 1009.2 |
| 20260503043042 | 81 | 195 | 0.9 | 4.3 | 0.00 | 0.00 | 0.00 | 82 | 1009.1 |
| 20260503042614 | 81 | 197 | 0.9 | 4.3 | 0.00 | 0.00 | 0.00 | 82 | 1009.1 |
| 20260503042017 | 81 | 222 | 1.7 | 4.3 | 0.00 | 0.00 | 0.00 | 82 | 1009.1 |
| 20260503041539 | 81 | 217 | 2.6 | 4.3 | 0.00 | 0.00 | 0.00 | 82 | 1009.0 |
| 20260503041055 | 81 | 205 | 2.6 | 4.3 | 0.00 | 0.00 | 0.00 | 81 | 1008.9 |
| 20260503040613 | 81 | 236 | 0.9 | 4.3 | 0.00 | 0.00 | 0.00 | 81 | 1009.0 |
| 20260503040013 | 81 | 198 | 1.7 | 4.3 | 0.00 | 0.00 | 0.00 | 81 | 1008.9 |
| 20260503035530 | 82 | 221 | 1.7 | 3.5 | 0.00 | 0.00 | 0.00 | 81 | 1008.8 |
| 20260503035101 | 82 | 204 | 0.9 | 3.5 | 0.00 | 0.00 | 0.00 | 81 | 1008.8 |
| 20260503034614 | 82 | 240 | 0.9 | 3.5 | 0.00 | 0.00 | 0.00 | 81 | 1008.7 |
| 20260503034005 | 82 | 196 | 0.0 | 3.5 | 0.00 | 0.00 | 0.00 | 81 | 1008.7 |
| 20260503033528 | 82 | 196 | 1.7 | 3.5 | 0.00 | 0.00 | 0.00 | 81 | 1008.5 |
| 20260503033109 | 82 | 212 | 0.9 | 2.6 | 0.00 | 0.00 | 0.00 | 81 | 1008.5 |
| 20260503032609 | 82 | 246 | 0.0 | 2.6 | 0.00 | 0.00 | 0.00 | 81 | 1008.3 |
| 20260503032022 | 82 | 265 | 0.9 | 2.6 | 0.00 | 0.00 | 0.00 | 81 | 1008.3 |
| 20260503031550 | 82 | 265 | 0.0 | 3.5 | 0.00 | 0.00 | 0.00 | 81 | 1008.2 |
| 20260503031105 | 82 | 265 | 0.9 | 3.5 | 0.00 | 0.00 | 0.00 | 81 | 1008.1 |
| 20260503030617 | 82 | 252 | 0.9 | 2.6 | 0.00 | 0.00 | 0.00 | 81 | 1008.1 |
| 20260503030011 | 82 | 252 | 1.7 | 3.5 | 0.00 | 0.00 | 0.00 | 81 | 1007.9 |
| 20260503025531 | 82 | 242 | 0.9 | 3.5 | 0.00 | 0.00 | 0.00 | 81 | 1007.8 |
| 20260503025057 | 82 | 260 | 0.9 | 3.5 | 0.00 | 0.00 | 0.00 | 81 | 1007.7 |
| 20260503024625 | 82 | 259 | 0.9 | 3.5 | 0.00 | 0.00 | 0.00 | 81 | 1007.6 |
| 20260503024002 | 82 | 197 | 0.9 | 2.6 | 0.00 | 0.00 | 0.00 | 81 | 1007.7 |
| 20260503023517 | 82 | 198 | 0.9 | 2.6 | 0.00 | 0.00 | 0.00 | 80 | 1007.6 |
| 20260503023120 | 82 | 196 | 0.9 | 2.6 | 0.00 | 0.00 | 0.00 | 80 | 1007.5 |
| 20260503022623 | 82 | 192 | 0.9 | 3.5 | 0.00 | 0.00 | 0.00 | 80 | 1007.5 |
| 20260503022019 | 82 | 188 | 0.9 | 4.3 | 0.00 | 0.00 | 0.00 | 80 | 1007.4 |
| 20260503021541 | 82 | 184 | 1.7 | 3.5 | 0.00 | 0.00 | 0.00 | 80 | 1007.3 |
| 20260503021053 | 82 | 238 | 1.7 | 6.1 | 0.00 | 0.00 | 0.00 | 80 | 1007.2 |
| 20260503020614 | 82 | 254 | 1.7 | 7.0 | 0.00 | 0.00 | 0.00 | 80 | 1007.2 |
| 20260503020011 | 82 | 169 | 2.6 | 6.1 | 0.00 | 0.00 | 0.00 | 80 | 1007.2 |
| 20260503015527 | 82 | 227 | 2.6 | 7.0 | 0.00 | 0.00 | 0.00 | 80 | 1007.2 |
| 20260503015042 | 82 | 240 | 1.7 | 7.0 | 0.00 | 0.00 | 0.00 | 80 | 1007.1 |
| 20260503014605 | 82 | 211 | 2.6 | 7.0 | 0.00 | 0.00 | 0.00 | 79 | 1007.0 |
| 20260503014009 | 82 | 185 | 4.3 | 7.0 | 0.00 | 0.00 | 0.00 | 79 | 1007.0 |
| 20260503013531 | 82 | 188 | 3.5 | 5.2 | 0.00 | 0.00 | 0.00 | 79 | 1007.0 |
| 20260503013057 | 82 | 196 | 2.6 | 5.2 | 0.00 | 0.00 | 0.00 | 79 | 1007.0 |
| 20260503012617 | 83 | 197 | 1.7 | 7.8 | 0.00 | 0.00 | 0.00 | 79 | 1007.1 |
| 20260503012013 | 83 | 190 | 4.3 | 7.8 | 0.00 | 0.00 | 0.00 | 79 | 1007.1 |
| 20260503011537 | 83 | 226 | 3.5 | 7.0 | 0.00 | 0.00 | 0.00 | 79 | 1007.1 |
| 20260503011115 | 83 | 196 | 1.7 | 6.1 | 0.00 | 0.00 | 0.00 | 79 | 1007.1 |
| 20260503010519 | 83 | 241 | 1.7 | 6.1 | 0.00 | 0.00 | 0.00 | 80 | 1007.0 |
| 20260503010044 | 83 | 218 | 1.7 | 6.1 | 0.00 | 0.00 | 0.00 | 80 | 1007.0 |
| 20260503005619 | 83 | 288 | 1.7 | 7.8 | 0.00 | 0.00 | 0.00 | 80 | 1006.9 |
| 20260503005015 | 83 | 265 | 2.6 | 7.8 | 0.00 | 0.00 | 0.00 | 80 | 1006.9 |
| 20260503004529 | 84 | 213 | 1.7 | 7.0 | 0.00 | 0.00 | 0.00 | 80 | 1006.9 |
| 20260503004102 | 84 | 261 | 0.9 | 7.8 | 0.00 | 0.00 | 0.00 | 79 | 1006.8 |
| 20260503003618 | 84 | 43 | 1.7 | 7.8 | 0.00 | 0.00 | 0.00 | 79 | 1006.6 |
| 20260503003011 | 84 | 240 | 1.7 | 7.0 | 0.00 | 0.00 | 0.00 | 79 | 1006.7 |
| 20260503002531 | 84 | 252 | 2.6 | 7.0 | 0.00 | 0.00 | 0.00 | 78 | 1006.7 |
| 20260503002101 | 84 | 198 | 1.7 | 7.0 | 0.00 | 0.00 | 0.00 | 78 | 1006.6 |
| 20260503001621 | 84 | 171 | 3.5 | 8.7 | 0.00 | 0.00 | 0.00 | 78 | 1006.6 |
| 20260503001005 | 84 | 207 | 3.5 | 8.7 | 0.00 | 0.00 | 0.00 | 77 | 1006.5 |
| 20260503000526 | 84 | 157 | 2.6 | 7.0 | 0.00 | 0.00 | 0.00 | 77 | 1006.6 |
| 20260503000038 | 84 | 245 | 2.6 | 7.0 | 0.00 | 0.00 | 0.00 | 77 | 1006.5 |
| 20260502235624 | 85 | 268 | 1.7 | 7.0 | 0.00 | 0.00 | 0.00 | 76 | 1006.6 |
| 20260502235043 | 85 | 254 | 2.6 | 6.1 | 0.00 | 0.00 | 0.00 | 77 | 1006.5 |
| 20260502234617 | 85 | 223 | 2.6 | 9.6 | 0.00 | 0.00 | 0.00 | 77 | 1006.5 |
| 20260502234013 | 85 | 273 | 3.5 | 10.4 | 0.00 | 0.00 | 0.00 | 76 | 1006.4 |
| 20260502233534 | 85 | 217 | 4.3 | 10.4 | 0.00 | 0.00 | 0.00 | 76 | 1006.4 |
| 20260502233111 | 85 | 264 | 3.5 | 10.4 | 0.00 | 0.00 | 0.00 | 76 | 1006.4 |
| 20260502232623 | 85 | 249 | 3.5 | 8.7 | 0.00 | 0.00 | 0.00 | 75 | 1006.3 |
| 20260502231613 | 85 | 198 | 5.2 | 11.3 | 0.00 | 0.00 | 0.00 | 75 | 1006.2 |
| 20260502231006 | 85 | 173 | 5.2 | 10.4 | 0.00 | 0.00 | 0.00 | 75 | 1006.3 |
| 20260502230524 | 85 | 219 | 5.2 | 8.7 | 0.00 | 0.00 | 0.00 | 75 | 1006.4 |
| 20260502230053 | 86 | 194 | 5.2 | 8.7 | 0.00 | 0.00 | 0.00 | 73 | 1006.5 |
| 20260502225614 | 86 | 215 | 5.2 | 10.4 | 0.00 | 0.00 | 0.00 | 73 | 1006.6 |
| 20260502225009 | 86 | 201 | 3.5 | 10.4 | 0.00 | 0.00 | 0.00 | 73 | 1006.6 |
| 20260502224530 | 87 | 165 | 4.3 | 7.8 | 0.00 | 0.00 | 0.00 | 71 | 1006.6 |
| 20260502224102 | 88 | 243 | 2.6 | 6.1 | 0.00 | 0.00 | 0.00 | 71 | 1006.6 |
| 20260502223619 | 88 | 239 | 3.5 | 6.1 | 0.00 | 0.00 | 0.00 | 71 | 1006.6 |
| 20260502223003 | 88 | 239 | 2.6 | 9.6 | 0.00 | 0.00 | 0.00 | 71 | 1006.7 |
| 20260502222527 | 88 | 217 | 4.3 | 9.6 | 0.00 | 0.00 | 0.00 | 70 | 1006.8 |
| 20260502222056 | 88 | 257 | 3.5 | 9.6 | 0.00 | 0.00 | 0.00 | 70 | 1006.8 |
| 20260502221620 | 88 | 203 | 4.3 | 9.6 | 0.00 | 0.00 | 0.00 | 70 | 1006.8 |
| 20260502221036 | 88 | 192 | 3.5 | 8.7 | 0.00 | 0.00 | 0.00 | 69 | 1006.8 |
| 20260502220559 | 88 | 206 | 3.5 | 8.7 | 0.00 | 0.00 | 0.00 | 69 | 1006.9 |
| 20260502220007 | 88 | 218 | 4.3 | 8.7 | 0.00 | 0.00 | 0.00 | 69 | 1006.9 |
| 20260502215531 | 88 | 210 | 2.6 | 13.0 | 0.00 | 0.00 | 0.00 | 69 | 1006.9 |